User: anonymous   Login
Location: Mason Neck State Park
(38.6428°N, 77.1981°W)
Time: 06:32:08
(UTC-04:00)
Language:

Cosmos 1400 Rocket - Orbit

View from above orbital plane
View from above orbital plane
View from above satellite
View from above satellite

Ground track
Ground track

The orbit data is extracted from the following two-line orbital elements,

1 13403U 82079B   17178.88194782 +.00000360 +00000-0 +22492-4 0  9990
2 13403 081.1694 257.0893 0032473 241.9217 117.8723 15.06587467898116
Epoch (UTC): 27 June 2017 21:10:00
Eccentricity: 0.0032473
inclination: 81.1694°
perigee height: 524 km
apogee height: 569 km
right ascension of ascending node: 257.0893°
argument of perigee: 241.9217°
revolutions per day: 15.06587467
mean anomaly at epoch: 117.8723°
orbit number at epoch: 89811

The dashed part of the orbit path shows where the satellite is in the earth's shadow,  

DLR